Location: Artiguedieu
(43.5000°N, 0.5454°E)
Time: 02:06:46
(UTC+00:00)

Daily predictions for brighter satellites

Satellite Brightness Start Highest point End
(mag) Time Altitude Azimuth Time Altitude Azimuth Time Altitude Azimuth
ATLAS 3B R/B 3.8 03:36:30 38° SE 03:36:30 38° SE 03:40:42 10° SE
CZ-4C R/B 4.3 03:47:08 19° NNE 03:47:08 19° NNE 03:48:52 10° NNE
Atlas Centaur 2 4.2 04:00:45 24° S 04:00:45 24° S 04:04:43 10° SE
Cosmos 1844 Rocket 4.4 04:02:41 24° NNE 04:02:41 24° NNE 04:04:54 10° NNE
ATLAS 5 CENTAUR R/B 3.5 04:17:17 26° E 04:17:17 26° E 04:19:48 10° NE
ADEOS 3.8 04:29:39 10° NNE 04:34:53 67° ESE 04:40:04 10° S
FENGYUN 3A 3.6 04:29:57 10° NNE 04:35:23 81° ESE 04:40:46 10° SSW
ATLAS 2AS CENTAUR R/B 3.8 04:39:47 33° NNW 04:39:47 33° NNW 04:45:58 10° NNE
Meteor 1-10 Rocket 4.3 04:41:21 30° N 04:44:12 73° E 04:49:53 10° SSE
Milstar 3 Cent rocket 4.3 04:42:06 18° SSW 04:44:14 21° S 04:51:06 10° SE
SKYMED 2 4.5 04:42:52 10° SE 04:47:01 47° ENE 04:48:45 30° NNE
Cosmos 372 Rocket 3.8 04:49:27 74° SSW 04:49:57 89° WNW 04:55:05 10° NNE
CZ-2C R/B 3.3 04:50:56 16° SSE 04:50:56 16° SSE 04:52:24 10° SE
COSMOS 2455 2.7 04:49:17 64° WSW 04:50:06 74° WNW 04:56:11 10° NNE
METEOR-M 4.0 04:44:51 10° NNE 04:50:14 86° ESE 04:55:35 10° SSW
Cosmos 2154 Rocket 4.1 04:47:35 10° S 04:53:49 79° E 05:00:08 10° N
Sich 1 3.9 04:55:06 10° S 04:59:24 52° E 05:03:42 10° NNE
ALOS 4.3 04:55:56 10° N 04:56:56 16° N 04:56:56 16° N
ERS-2 3.6 04:57:19 10° SSE 04:59:08 28° S 04:59:08 28° S
Cosmos 2344 4.5 04:55:57 32° NW 05:01:31 64° WSW 05:15:05 10° SSE
Cosmos 1833 Rocket 3.5 04:57:52 18° N 05:01:47 47° ENE 05:07:10 10° SE
Cosmos 2327 Rocket 4.3 04:56:37 10° S 05:02:41 87° W 05:08:49 10° N
Cosmos 2074 Rocket 4.0 04:59:14 10° SSW 05:05:18 56° WNW 05:11:25 10° N
SL-4 R/B 2.3 05:06:44 53° NNE 05:06:44 53° NNE 05:10:21 10° ESE
Cosmos 2082 Rocket 3.8 05:01:52 10° N 05:06:55 31° NE 05:11:58 10° ESE
EXPRESS MD2 3.4 05:07:42 68° NNW 05:08:06 75° NNE 05:14:26 10° ESE
Cosmos 2228 Rocket 3.1 05:11:08 59° WSW 05:11:08 59° WSW 05:15:06 10° S
Cosmos 1437 Rocket 2.6 05:12:48 71° SSW 05:12:48 71° SSW 05:16:16 10° S
Lacrosse 5 3.6 05:12:41 19° N 05:12:43 19° N 05:16:17 10° NE
EO 1 Delta rocket 4.0 05:12:06 10° SSE 05:16:48 70° ENE 05:21:27 10° N
Meteor 2-6 Rocket 4.3 05:16:02 43° WNW 05:16:52 47° W 05:22:08 10° SSW
Cosmos 2341 Rocket 4.3 05:14:23 10° S 05:20:32 68° E 05:26:43 10° NNE
ATLAS 3B R/B 3.8 05:23:49 24° WSW 05:23:49 24° WSW 05:29:03 10° SSW
USA 307 3.0 05:22:34 45° NW 05:23:48 75° NE 05:28:06 10° ESE
Meteor PRIRODA 3.5 05:23:40 10° NNE 05:27:25 88° WNW 05:31:08 10° SSW
CZ-4B R/B 2.9 05:25:10 10° N 05:29:36 77° WNW 05:33:49 10° SSW
USA 308 2.9 05:28:59 40° NW 05:30:28 83° NE 05:34:46 10° SE
Cosmos 2184 Rocket 4.4 05:25:13 10° SW 05:31:04 38° WNW 05:36:58 10° N
CZ-4C R/B 3.7 05:32:19 19° NNW 05:32:47 19° NNW 05:37:08 10° NNE
Cosmos 2278 Rocket 2.2 05:27:42 10° SSW 05:33:22 89° ESE 05:39:04 10° NNE
SAR-Lupe-4 3.7 05:30:40 10° S 05:34:10 51° W 05:34:39 46° WNW
COSMO-SKYMED 1 2.7 05:30:48 10° S 05:35:02 52° W 05:37:21 25° NNW
Cosmos 1862 Rocket 4.5 05:34:37 10° N 05:38:57 49° ENE 05:43:11 10° SSE
Okean O Rocket 4.1 05:35:26 10° NE 05:39:04 24° E 05:42:41 10° SSE
Cosmos 1805 Rocket 3.9 05:35:08 10° SSW 05:39:23 43° WNW 05:43:39 10° N
Envisat 3.8 05:35:07 10° NNE 05:40:07 54° E 05:45:05 10° S
deb Chang Zheng 4 4.1 05:38:31 10° N 05:42:31 36° WNW 05:46:30 10° SW
Cosmos 1844 Rocket 4.1 05:44:24 18° NW 05:44:24 18° NW 05:47:45 10° N
Cosmos 494 Rocket 3.9 05:39:47 11° NNW 05:44:44 89° ENE 05:49:51 10° SSE
YAOGAN 6 3.4 05:41:54 10° NNE 05:45:18 52° E 05:48:43 10° S
Cosmos 1666 Rocket 3.4 05:43:15 10° SSW 05:47:33 75° W 05:51:56 10° N
COSMOS 2406 3.3 05:44:31 16° NNW 05:49:10 62° WSW 05:54:51 10° S
FALCON 9 DEB 3.5 05:49:54 32° W 05:51:06 50° SW 05:54:28 10° SE
BREEZE-M (TANK) 3.3 05:42:35 10° SW 05:51:36 65° SSE 05:54:26 10° ENE
Cosmos 1689 Rocket 2.6 05:49:07 10° SSW 05:51:46 34° W 05:51:47 34° W
USA 305 3.0 05:53:05 25° WNW 05:55:28 63° SW 05:59:43 10° SE
Cosmos 1242 Rocket 2.5 05:56:20 10° N 06:00:01 86° E 06:03:41 10° S
ATLAS 5 CENTAUR R/B 2.4 05:58:53 22° W 06:00:31 29° NW 06:04:31 10° NNE
H-2A R/B 2.7 05:57:17 10° NNE 06:01:06 66° ESE 06:04:57 10° S
MOS 1 Rocket 3.5 05:58:33 10° S 06:03:30 66° W 06:08:47 10° NNW
USA 306 3.2 06:01:36 21° WNW 06:04:18 54° SW 06:08:29 10° SE
CZ-2C R/B 3.5 06:00:01 10° SE 06:05:14 51° ENE 06:10:23 10° N
Cosmos 2366 rocket 4.0 06:00:14 10° S 06:06:33 88° W 06:12:50 10° N
Cosmos 1633 Rocket 3.1 06:03:12 10° SSW 06:07:32 55° W 06:11:53 10° N
USA 81 4.1 06:04:19 10° SSW 06:09:27 56° W 06:14:39 10° N
Cosmos 2218 Rocket 3.9 06:06:04 10° SSW 06:12:17 77° W 06:18:29 10° N
Cosmos 1125 Rocket 3.8 06:08:04 10° SW 06:13:02 44° WNW 06:18:01 10° N
Meteor 1-20 Rocket 4.2 06:08:57 10° SSW 06:14:38 68° WNW 06:20:27 10° N
H-2A R/B 3.2 06:11:35 10° N 06:15:12 37° WNW 06:18:44 10° SW
GENESIS II 4.2 06:11:38 10° SW 06:15:38 78° WNW 06:19:41 10° NNE
NOSS 3-1 (C) 4.4 06:10:40 10° NW 06:18:13 73° NE 06:26:55 10° SE
Cosmos 1269 Rocket 4.0 06:15:31 10° NNW 06:20:50 88° WSW 06:26:06 10° SSE
PSLV R/B 4.1 06:19:41 10° N 06:23:15 40° WNW 06:26:44 10° SW
deb Kosmos-1763 4.0 06:23:38 10° NNW 06:27:13 63° WSW 06:30:46 10° S
NOSS 2-1 (E) 2.8 06:24:24 10° SW 06:27:45 77° NW 06:31:14 10° NE
CZ-2C R/B 3.0 06:26:47 10° SW 06:29:03 17° S 06:31:16 10° SE
AQUARIUS 4.2 06:29:38 10° NNE 06:34:10 87° WNW 06:38:39 10° SSW
Cosmos 2242 Rocket 3.6 06:31:59 10° N 06:36:24 88° E 06:40:48 10° S
CZ-4B DEB 4.3 06:31:12 10° N 06:36:31 53° WNW 06:41:49 10° SW
COSMOS 2455 4.3 06:33:09 10° WNW 06:37:07 18° NW 06:41:06 10° N
Cosmos 1939 Rocket 3.9 06:38:30 10° NNE 06:42:33 53° E 06:46:35 10° S
Okean 1 3.8 06:40:01 10° NNW 06:43:51 42° W 06:47:41 10° SSW
USA 290 3.3 06:41:10 10° NW 06:44:00 27° WSW 06:46:47 10° SSW
Meteor 1-19 Rocket 4.2 06:40:03 10° NNW 06:45:21 58° W 06:50:38 10° S
Cosmos 1833 Rocket 3.7 06:40:50 10° NW 06:45:23 26° WSW 06:49:56 10° SSW
